DAAGDAOO

Guest
Details From DAAG - Alger Houari Boumediene
To DAOO - ES SENIA
Flight Number -
Tags generated
Created
Modified
Stats Distance 197 nm / 366 km
Max Altitude 24,500 ft / 7,468 m
Waypoints 4
Social Downloads 1
Likes 0
Share VATSIM

Download

Looking for another format? Having issues loading an existing format? Contact us
Advertisement - Login to hide

Notes

Basic altitude profile: - Ascent Rate: 2500ft/min - Ascent Speed: 250kts - Cruise Altitude: 15000ft - Cruise Speed: 420kts - Descent Rate: 1500ft/min - Descent Speed: 250kts Options: - Use NATs: yes - Use PACOTS: yes - Use low airways: no - Use high airways: yes

Route

DAAG DAHRA UA411 MOS DAOO

ID Type Via Altitude Latitude Longitude Leg Dist Tot Dist Heading (true) Name
O DAAG APT - 0 ft / 0 m 36.69752˚ 3.21308˚ - 0 nm - Alger Houari Boumediene
DAHRA FIX - 24,100 ft / 7,346 m 36.38333˚ 1.50000˚ 84 nm 84 nm 258° / 257° -
MOS VOR UA411 (AWY-HI) 24,500 ft / 7,468 m 35.89861˚ 0.13639˚ 72 nm 157 nm 247° / 246° MOSTAGANEM VOR-DME
O DAOO APT - 0 ft / 0 m 35.62386˚ -0.62118˚ 40 nm 197 nm 246° / 246° ES SENIA

Altitude Profile

Advertisement - Login to hide

Weather


0- 5 10 15 20 25 30 35+ Temperature / ° C

Clouds and Precipitation
Forecast for 2017-12-12 06:00 UTC. Updated 2 hours ago

Ground ~20,000 ft ~40,000 ft Winds

DAAG

Details ICAO DAAG (ALG)
Name Alger Houari Boumediene
Region Algeria
Timezone Africa/Algiers (UTC+1.0)
Stats Elevation 82 ft / 25 m (AMSL)
Location 36.697521° 3.213079°
Runways 2
Magnetic Variation 1.057° E

METAR

DAAG 120500Z 17001KT 9999 FEW026 FEW030CB BKN083 11/09 Q1011

Decode

TAF

TAF DAAG 112300Z 1200/1224 28012KT 9999 FEW026 BKN083 PROB40 TEMPO 1200/1209 FEW026CB PROB40 TEMPO 1203/1209 28015G25KT 5000 -TSRA FEW023CB

Decode

Departure Runways

ID Width Length Bearing (true) Bearing (mag) Surface Threshold Offset Overrun Length
05 197 ft / 60 m 11,459 ft / 3,493 m 52.87° 51.81° Asphalt 0 ft / 0 m 0 ft / 0 m
09 148 ft / 45 m 11,442 ft / 3,487 m 91.75° 90.69° Asphalt 0 ft / 0 m 1,017 ft / 310 m
23 197 ft / 60 m 11,459 ft / 3,493 m 232.89° 231.83° Asphalt 0 ft / 0 m 0 ft / 0 m
27 148 ft / 45 m 11,442 ft / 3,487 m 271.78° 270.72° Asphalt 0 ft / 0 m 0 ft / 0 m

DAOO

Details ICAO DAOO (ORN)
Name ES SENIA
Region Algeria
Timezone Africa/Algiers (UTC+1.0)
Stats Elevation 295 ft / 90 m (AMSL)
Location 35.623858° -0.621183°
Runways 1
Magnetic Variation 0.151° E

METAR

DAOO 120500Z 23008KT 8000 RA BKN026 10/09 Q1010

Decode

TAF

TAF DAOO 112300Z 1200/1224 24008KT 9999 BKN026 PROB40 TEMPO 1204/1208 4000 BR SCT015 TEMPO 1208/1213 8000 -RA FEW026CB BECMG 1212/1215 27012KT

Decode

Destination Runways

ID Width Length Bearing (true) Bearing (mag) Surface Threshold Offset Overrun Length
07 148 ft / 45 m 10,006 ft / 3,050 m 67.06° 66.91° Asphalt 0 ft / 0 m 328 ft / 100 m
25 148 ft / 45 m 10,006 ft / 3,050 m 247.08° 246.93° Asphalt 196 ft / 60 m 0 ft / 0 m

Popular Alternatives